User: anonymous   Login
Location: Unspecified
(0.0000°N, 0.0000°E)
Time: 20:20:32
(UTC+00:00)
Language:

OTTER - Orbit

View from above orbital plane
View from above orbital plane
View from above satellite
View from above satellite

Ground track
Ground track

The orbit is defined by the following mean orbital elements,

1 62623U          26145.17871064 +.00000000 +00000-0 +34645-3 0 00009
2 62623  97.4027 227.4259 0005460  48.7968 311.3742 15.29364737    06
Epoch (UTC): 25 May 2026 04:17:20
Eccentricity: 0.0005460
inclination: 97.4027°
perigee height: 474 km
apogee height: 481 km
right ascension of ascending node: 227.4259°
argument of perigee: 48.7968°
revolutions per day: 15.29364737
mean anomaly at epoch: 311.3742°

The dashed part of the orbit path shows where the satellite is in the earth's shadow,  

DLR